Location: Garshuizen
(53.3675°N, 6.7248°E)
Time: 13:43:05
(UTC+00:00)

Meteor 2-9 Rocket - Pass Details

Date: 15 May 2026
Orbit: 790 x 893 km, 81.3° (Epoch: 11 June)

Event Time Altitude Azimuth Distance (km) Brightness Sun altitude
Rises 22:30:34 0° 346° (NNW) 3,319 9.1 -16.5°
Reaches altitude 10° 22:32:56 10° 346° (NNW) 2,393 7.9 -16.6°
Maximum altitude 22:38:21 86° 260° (W) 826 4.1 -16.7°
Enters shadow 22:41:21 28° 171° (S) 1,504 4.9 -16.8°
